This is the latest recevied weather packets stored in our database for station/object DC4XK-10. If no packets are shown the sender has not sent any weather packets the latest 10 day(s).
| Time | Temp. | Humidity | Pressure | Rain* | Wind** | Luminosity | Snow |
|---|---|---|---|---|---|---|---|
| 1777510731 | 3.33° C | 86% | 1030.3 hPa | 0 mm | 0 m/s | - | - |
| 1777510131 | 3.33° C | 86% | 1030.4 hPa | 0 mm | 0 m/s | - | - |
| 1777509531 | 3.33° C | 84% | 1030.4 hPa | 0 mm | 0 m/s | - | - |
| 1777508932 | 3.89° C | 81% | 1030.5 hPa | 0 mm | 0 m/s | - | - |
| 1777508330 | 4.44° C | 79% | 1030.4 hPa | 0 mm | 0 m/s | - | - |
| 1777507731 | 3.33° C | 85% | 1030.6 hPa | 0 mm | 0 m/s | - | - |
| 1777507133 | 2.78° C | 88% | 1030.5 hPa | 0 mm | 0 m/s | - | - |
| 1777506531 | 3.33° C | 88% | 1030.4 hPa | 0 mm | 0 m/s | - | - |
| 1777505931 | 3.33° C | 85% | 1030.6 hPa | 0 mm | 0 m/s | - | - |
| 1777505334 | 4.44° C | 90% | 1030.6 hPa | 0 mm | 0 m/s | - | - |
| 1777504731 | 5° C | 89% | 1030.5 hPa | 0 mm | 0 m/s | - | - |
| 1777504131 | 4.44° C | 89% | 1030.5 hPa | 0 mm | 0 m/s | - | - |
| 1777503531 | 5° C | 88% | 1030.4 hPa | 0 mm | 0 m/s | - | - |
| 1777502931 | 5° C | 86% | 1030.3 hPa | 0 mm | 0 m/s | - | - |
| 1777502331 | 5° C | 85% | 1030.4 hPa | 0 mm | 0 m/s | - | - |
| 1777501730 | 5.56° C | 81% | 1030.2 hPa | 0 mm | 0 m/s | - | - |
| 1777501131 | 5.56° C | 80% | 1030.2 hPa | 0 mm | 0 m/s | - | - |
| 1777500531 | 6.11° C | 78% | 1029.9 hPa | 0 mm | 0 m/s | - | - |
| 1777499931 | 5.56° C | 73% | 1030 hPa | 0 mm | 0 m/s | - | - |
| 1777499331 | 6.11° C | 70% | 1030.1 hPa | 0 mm | 0 m/s | - | - |
| 1777498731 | 6.11° C | 72% | 1030 hPa | 0 mm | 0 m/s | - | - |
| 1777498130 | 6.11° C | 70% | 1030.1 hPa | 0 mm | 0 m/s | - | - |
| 1777497531 | 6.11° C | 72% | 1030 hPa | 0 mm | 0 m/s | - | - |
| 1777496932 | 6.11° C | 72% | 1029.8 hPa | 0 mm | 0 m/s | - | - |
| 1777496330 | 6.11° C | 76% | 1029.7 hPa | 0 mm | 0 m/s | - | - |
* Rain latest hour (hover to see other rain measurements)
** Current wind speed in m/s (hover to see current wind gust speed)